When you browse on this site, cookies collect data to enhance your experience and personalize the content and advertising you see.
Visit our Privacy Policy to learn more. By continuing to use the site, you agree to this use of cookies and data.

Stündliche Wetter Newcastle

Heute, 10 Juli, Freitag

Zeit Temperatur Niederschläge Wind Luftdruck Luftfeuchtigkeit
00:00 +12°C° 0 mm 2 m/S 770 mmHg 93%
01:00 +12°C° 0 mm 2 m/S 770 mmHg 94%
02:00 +12°C° 0 mm 2 m/S 769 mmHg 95%
03:00 +12°C° 0 mm 2 m/S 769 mmHg 95%
04:00 +12°C° 0 mm 2 m/S 769 mmHg 96%
05:00 +12°C° 0 mm 2 m/S 769 mmHg 96%
06:00 +10°C° 0 mm 2 m/S 769 mmHg 96%
07:00 +10°C° 0 mm 2 m/S 769 mmHg 96%
08:00 +12°C° 0.1 mm 2 m/S 769 mmHg 92%
09:00 +12°C° 0.1 mm 3 m/S 769 mmHg 89%
10:00 +13°C° 0 mm 3 m/S 769 mmHg 86%
11:00 +16°C° 0 mm 3 m/S 768 mmHg 81%
12:00 +17°C° 0 mm 3 m/S 768 mmHg 77%
13:00 +18°C° 0 mm 2 m/S 767 mmHg 72%
14:00 +17°C° 0.1 mm 2 m/S 767 mmHg 77%
15:00 +16°C° 0.1 mm 2 m/S 766 mmHg 81%
16:00 +16°C° 0 mm 1 m/S 766 mmHg 82%
17:00 +15°C° 0.1 mm 1 m/S 766 mmHg 85%
18:00 +15°C° 0.1 mm 1 m/S 766 mmHg 88%
19:00 +14°C° 0.1 mm 1 m/S 766 mmHg 91%
20:00 +14°C° 0 mm 1 m/S 766 mmHg 91%
21:00 +14°C° 0 mm 1 m/S 766 mmHg 91%
22:00 +14°C° 0 mm 2 m/S 766 mmHg 90%
23:00 +14°C° 0 mm 2 m/S 766 mmHg 92%

Morgen, 11 Juli, Samstag

Zeit Temperatur Niederschläge Wind Luftdruck Luftfeuchtigkeit
00:00 +13°C° 0 mm 2 m/S 765 mmHg 93%
01:00 +13°C° 0 mm 2 m/S 765 mmHg 95%
02:00 +13°C° 0.1 mm 2 m/S 764 mmHg 95%
03:00 +13°C° 0.1 mm 2 m/S 763 mmHg 95%
04:00 +13°C° 0.1 mm 2 m/S 763 mmHg 95%
05:00 +13°C° 0 mm 2 m/S 763 mmHg 95%
06:00 +13°C° 0 mm 2 m/S 763 mmHg 95%
07:00 +13°C° 0 mm 2 m/S 763 mmHg 95%
08:00 +14°C° 0 mm 2 m/S 762 mmHg 91%
09:00 +14°C° 0 mm 3 m/S 762 mmHg 88%
10:00 +16°C° 0 mm 3 m/S 762 mmHg 84%
11:00 +18°C° 0 mm 3 m/S 761 mmHg 76%
12:00 +19°C° 0 mm 3 m/S 761 mmHg 68%
13:00 +21°C° 0 mm 3 m/S 760 mmHg 60%
14:00 +20°C° 0.1 mm 3 m/S 760 mmHg 64%
15:00 +19°C° 0.1 mm 3 m/S 760 mmHg 68%
16:00 +19°C° 0.1 mm 3 m/S 759 mmHg 72%
17:00 +17°C° 0 mm 3 m/S 760 mmHg 77%
18:00 +16°C° 0 mm 3 m/S 760 mmHg 82%
19:00 +14°C° 0 mm 3 m/S 760 mmHg 87%
20:00 +13°C° 0 mm 4 m/S 760 mmHg 89%
21:00 +13°C° 0 mm 4 m/S 761 mmHg 90%
22:00 +13°C° 0 mm 4 m/S 761 mmHg 91%
23:00 +13°C° 0 mm 4 m/S 761 mmHg 91%

übermorgen, 12 Juli, Sonntag

Zeit Temperatur Niederschläge Wind Luftdruck Luftfeuchtigkeit
00:00 +12°C° 0 mm 4 m/S 761 mmHg 91%
01:00 +12°C° 0 mm 4 m/S 760 mmHg 92%
02:00 +12°C° 0 mm 4 m/S 760 mmHg 92%
03:00 +12°C° 0 mm 4 m/S 760 mmHg 92%
04:00 +11°C° 0 mm 3 m/S 760 mmHg 93%
05:00 +11°C° 0 mm 3 m/S 761 mmHg 94%
06:00 +11°C° 0 mm 3 m/S 761 mmHg 94%
07:00 +12°C° 0 mm 2 m/S 762 mmHg 95%
08:00 +14°C° 0 mm 2 m/S 762 mmHg 85%
09:00 +16°C° 0 mm 1 m/S 762 mmHg 76%
10:00 +17°C° 0 mm 0 m/S 762 mmHg 67%
11:00 +19°C° 0 mm 1 m/S 762 mmHg 63%
12:00 +20°C° 0 mm 1 m/S 761 mmHg 60%
13:00 +21°C° 0 mm 1 m/S 760 mmHg 56%
14:00 +20°C° 0.2 mm 1 m/S 760 mmHg 63%
15:00 +18°C° 0.2 mm 2 m/S 760 mmHg 71%
16:00 +17°C° 0.2 mm 2 m/S 760 mmHg 78%
17:00 +15°C° 0.2 mm 2 m/S 760 mmHg 82%
18:00 +14°C° 0.2 mm 2 m/S 761 mmHg 86%
19:00 +12°C° 0.2 mm 3 m/S 761 mmHg 91%
20:00 +13°C° 0.6 mm 2 m/S 761 mmHg 92%
21:00 +12°C° 0.6 mm 2 m/S 761 mmHg 93%
22:00 +12°C° 0.6 mm 2 m/S 761 mmHg 94%
23:00 +12°C° 1 mm 2 m/S 761 mmHg 95%

13 Juli, Montag

Zeit Temperatur Niederschläge Wind Luftdruck Luftfeuchtigkeit
00:00 +10°C° 1 mm 2 m/S 761 mmHg 96%
01:00 +10°C° 1 mm 2 m/S 760 mmHg 97%
02:00 +10°C° 0.6 mm 3 m/S 760 mmHg 96%
03:00 +10°C° 0.6 mm 4 m/S 760 mmHg 95%
04:00 +9°C° 0.6 mm 5 m/S 760 mmHg 94%
05:00 +9°C° 0.1 mm 5 m/S 761 mmHg 93%
06:00 +8°C° 0.1 mm 4 m/S 761 mmHg 93%
07:00 +8°C° 0.1 mm 4 m/S 762 mmHg 92%
08:00 +10°C° 0 mm 4 m/S 762 mmHg 86%
09:00 +10°C° 0 mm 5 m/S 762 mmHg 80%
10:00 +13°C° 0 mm 5 m/S 762 mmHg 75%
11:00 +14°C° 0 mm 5 m/S 761 mmHg 67%
12:00 +15°C° 0 mm 4 m/S 761 mmHg 59%
13:00 +17°C° 0 mm 4 m/S 760 mmHg 51%
14:00 +15°C° 0.1 mm 4 m/S 760 mmHg 56%
15:00 +16°C° 0.1 mm 3 m/S 760 mmHg 60%
16:00 +14°C° 0.1 mm 3 m/S 760 mmHg 65%
17:00 +13°C° 0 mm 3 m/S 761 mmHg 71%
18:00 +11°C° 0 mm 3 m/S 761 mmHg 76%
19:00 +9°C° 0 mm 3 m/S 762 mmHg 82%
20:00 +9°C° 0 mm 3 m/S 762 mmHg 84%
21:00 +8°C° 0 mm 3 m/S 762 mmHg 87%
22:00 +7°C° 0 mm 4 m/S 762 mmHg 89%
23:00 +7°C° 0 mm 4 m/S 762 mmHg 89%

14 Juli, Dienstag

Zeit Temperatur Niederschläge Wind Luftdruck Luftfeuchtigkeit
00:00 +6°C° 0 mm 5 m/S 762 mmHg 89%
01:00 +6°C° 0 mm 5 m/S 762 mmHg 89%
02:00 +7°C° 0.1 mm 6 m/S 761 mmHg 86%
03:00 +7°C° 0.1 mm 6 m/S 761 mmHg 82%
04:00 +8°C° 0.1 mm 6 m/S 761 mmHg 79%
05:00 +8°C° 1 mm 7 m/S 761 mmHg 84%
06:00 +9°C° 1 mm 8 m/S 762 mmHg 89%
07:00 +9°C° 1 mm 8 m/S 762 mmHg 94%
08:00 +10°C° 2.3 mm 9 m/S 763 mmHg 92%
09:00 +11°C° 2.3 mm 9 m/S 763 mmHg 91%
10:00 +12°C° 2.3 mm 9 m/S 763 mmHg 89%
11:00 +12°C° 0.2 mm 9 m/S 763 mmHg 83%
12:00 +13°C° 0.2 mm 10 m/S 763 mmHg 78%
13:00 +14°C° 0.2 mm 10 m/S 763 mmHg 72%
14:00 +13°C° 0.2 mm 10 m/S 763 mmHg 71%
15:00 +13°C° 0.2 mm 9 m/S 763 mmHg 70%
16:00 +13°C° 0.2 mm 9 m/S 763 mmHg 69%
17:00 +12°C° 0.2 mm 9 m/S 763 mmHg 72%
18:00 +11°C° 0.2 mm 8 m/S 764 mmHg 75%
19:00 +10°C° 0.2 mm 8 m/S 764 mmHg 78%
20:00 +10°C° 0.2 mm 8 m/S 764 mmHg 80%
21:00 +10°C° 0.2 mm 8 m/S 764 mmHg 83%
22:00 +10°C° 0.2 mm 9 m/S 765 mmHg 85%
23:00 +10°C° 0.1 mm 9 m/S 764 mmHg 84%

15 Juli, Mittwoch

Zeit Temperatur Niederschläge Wind Luftdruck Luftfeuchtigkeit
00:00 +8°C° 0.1 mm 9 m/S 764 mmHg 84%
01:00 +8°C° 0.1 mm 9 m/S 764 mmHg 83%
02:00 +8°C° 0.1 mm 9 m/S 764 mmHg 81%
03:00 +8°C° 0.1 mm 9 m/S 764 mmHg 79%
04:00 +9°C° 0.1 mm 8 m/S 763 mmHg 77%
05:00 +9°C° 0.2 mm 8 m/S 764 mmHg 77%
06:00 +9°C° 0.2 mm 8 m/S 764 mmHg 77%
07:00 +9°C° 0.2 mm 8 m/S 764 mmHg 76%
08:00 +10°C° 0.2 mm 8 m/S 764 mmHg 75%
09:00 +11°C° 0.2 mm 8 m/S 764 mmHg 73%
10:00 +11°C° 0.2 mm 9 m/S 764 mmHg 72%
11:00 +11°C° 0.4 mm 9 m/S 763 mmHg 74%
12:00 +11°C° 0.4 mm 9 m/S 763 mmHg 76%
13:00 +12°C° 0.4 mm 9 m/S 763 mmHg 78%
14:00 +12°C° 0.3 mm 9 m/S 763 mmHg 79%
15:00 +12°C° 0.3 mm 9 m/S 763 mmHg 80%
16:00 +11°C° 0.3 mm 8 m/S 763 mmHg 80%
17:00 +11°C° 0.2 mm 8 m/S 763 mmHg 81%
18:00 +11°C° 0.2 mm 8 m/S 764 mmHg 81%
19:00 +11°C° 0.2 mm 8 m/S 764 mmHg 82%
20:00 +11°C° 0.1 mm 8 m/S 764 mmHg 81%
21:00 +11°C° 0.1 mm 8 m/S 765 mmHg 81%
22:00 +10°C° 0.1 mm 7 m/S 765 mmHg 80%
23:00 +10°C° 0.1 mm 7 m/S 764 mmHg 80%
Mehr zeigen